Location: Newark
(42.8481°N, 0.4872°E)
Time: 22:51:55
(UTC+00:00)

Transit 2A Rocket - Pass Details

Date: 02 November 2020
Orbit: 588 x 914 km, 66.7° (Epoch: 29 November)

Event Time Altitude Azimuth Distance (km) Brightness Sun altitude
Rises 07:12:32 0° 176° (S) 3,528 8.9 5.7°
Reaches altitude 10° 07:15:22 10° 166° (SSE) 2,595 8.4 6.1°
Maximum altitude 07:20:27 29° 109° (ESE) 1,615 8.2 6.9°
Drops below altitude 10° 07:25:27 10° 52° (NE) 2,547 8.1 7.8°
Sets 07:28:12 0° 41° (NE) 3,453 8.5 8.2°
